Theta_e
287 281 278 279 281 283 281 278 277 280 284 282 279 281 284 288 287 287 287 288 290 293 296 297 298 298 298 297 297 297 297 298 298 299 299 299 299 303 305 310 313 318 327 327
283 278 284 286 286 283 280 277 276 280 284 284 282 282 286 288 287 288 288 288 290 294 295 297 296 296 296 296 296 296 296 297 298 299 299 299 299 301 303 305 307 309 311 328
281 283 286 284 282 280 278 277 277 277 281 284 282 279 283 287 288 290 290 290 292 292 293 293 294 295 295 295 293 295 295 296 295 296 298 298 298 298 299 301 305 309 312 317
281 285 283 281 281 280 276 282 280 279 278 272 281 270 279 284 285 287 288 288 289 291 292 293 293 293 294 292 292 292 293 293 293 294 293 293 293 293 295 298 301 304 307 310
279 280 279 281 281 282 278 282 280 280 277 276 277 271 278 284 283 283 285 288 289 290 290 291 292 293 293 293 291 291 290 290 291 292 291 291 292 294 295 296 298 301 305 308
280 283 283 281 283 283 284 282 282 281 278 265 276 275 275 279 283 284 286 287 288 287 290 291 292 292 290 290 289 288 288 288 289 290 290 290 290 291 292 293 294 297 302 305
278 279 282 283 278 282 282 275 262 264 265 265 278 275 277 283 284 286 285 286 285 287 289 289 288 287 287 285 285 285 286 285 287 288 289 289 289 290 291 293 295 296 299 303
271 270 279 282 278 276 280 274 263 259 261 267 276 270 278 285 287 286 286 286 287 288 289 288 287 285 283 283 283 283 284 284 286 287 287 289 290 290 292 293 295 297 299 302
272 274 279 282 281 282 278 270 279 263 265 265 272 277 283 286 284 285 285 285 285 287 287 286 285 283 282 282 282 283 283 283 284 285 287 288 290 290 291 293 295 297 300 303
276 270 277 280 282 284 280 282 269 265 258 257 267 272 275 280 282 283 282 283 285 286 286 285 283 282 282 282 282 283 283 283 284 285 286 288 290 291 291 292 294 296 299 301
278 275 275 277 275 277 273 270 270 272 270 261 260 269 279 280 281 279 281 284 284 284 285 283 281 281 281 281 281 282 282 283 284 287 287 289 291 291 291 292 293 295 297 298
280 276 270 274 278 279 279 277 273 264 264 270 267 270 283 282 283 281 282 284 285 285 285 282 280 279 280 279 281 281 282 283 285 290 290 290 291 291 292 289 291 292 287 288
279 271 265 271 275 278 275 278 279 268 266 266 261 268 283 282 282 282 282 285 284 284 282 280 279 278 278 279 280 280 281 282 285 288 290 290 288 286 285 285 286 286 287 288
283 274 269 270 274 274 274 276 278 270 261 261 268 268 278 280 277 279 280 285 283 283 281 278 277 277 278 279 280 280 280 282 283 286 286 285 285 285 285 285 286 286 287 288
279 268 269 272 275 274 274 274 275 273 269 266 269 269 275 277 277 278 277 280 282 282 280 277 276 276 278 279 279 280 280 281 282 282 283 283 284 285 284 284 284 286 285 285
280 269 274 269 274 275 273 275 275 275 274 273 275 274 281 282 280 275 276 278 281 280 279 277 276 276 277 278 278 280 279 280 282 281 281 282 282 283 283 283 283 283 284 284
276 271 265 266 273 273 268 272 274 271 271 273 267 274 275 273 275 276 273 280 280 280 278 277 275 276 277 278 279 279 280 281 280 280 281 281 282 281 282 282 282 282 282 283
274 271 267 264 266 265 277 280 277 275 276 275 273 274 278 273 276 283 275 281 280 280 278 277 276 276 278 278 278 280 280 280 280 280 280 281 281 280 281 281 281 281 282 282
278 273 263 262 256 272 276 276 276 273 274 279 278 280 280 281 283 284 279 282 281 280 279 278 275 275 277 278 278 278 278 279 279 279 280 280 281 280 280 280 280 281 281 281
279 275 267 257 260 263 276 277 281 280 270 280 281 280 280 282 275 275 283 282 280 272 276 279 272 270 276 275 278 278 277 278 277 278 279 280 280 280 279 280 280 281 281 280
271 271 265 258 259 268 277 281 282 269 275 282 282 282 280 279 277 281 282 273 271 270 270 270 270 271 271 272 275 277 277 276 278 279 279 279 280 279 279 279 280 279 279 278
269 267 264 262 259 267 280 280 275 279 282 283 282 281 280 282 282 281 277 274 272 271 269 270 271 271 271 272 275 276 276 278 279 279 279 279 279 280 279 279 279 278 278 277
271 275 271 273 273 280 282 281 283 283 282 281 281 281 281 283 283 282 279 279 277 274 276 274 275 276 274 275 278 277 276 276 276 277 277 278 278 279 280 279 278 278 278 277
274 277 275 275 280 280 281 283 281 282 282 282 281 281 282 283 284 283 282 281 280 278 275 274 274 273 273 274 275 274 275 275 273 274 275 276 276 276 276 277 277 276 275 275
276 277 273 273 278 279 281 280 281 282 281 281 282 282 282 283 283 283 282 281 280 278 275 273 272 272 272 272 271 270 272 271 272 272 273 273 273 273 275 275 274 276 275 275
276 275 275 277 280 282 281 280 280 280 279 279 280 280 282 283 283 283 281 281 279 276 274 272 271 271 269 268 268 267 266 268 269 271 271 270 271 270 271 272 273 282 282 282
Wind_Speed
4 8 3 1 2 1 2 3 6 6 1 10 3 18 18 21 6 9 8 2 4 6 5 2 4 6 7 6 7 7 7 7 8 10 8 7 4 6 7 7 12 14 16 24
6 3 2 3 4 3 3 4 5 8 6 6 9 18 15 14 4 5 5 1 4 3 5 6 6 5 6 7 8 7 7 9 9 8 6 5 5 5 5 7 9 12 14 19
5 3 2 2 3 4 3 2 3 6 8 5 9 8 7 5 2 5 7 4 8 8 7 8 11 14 10 11 8 9 10 10 9 12 10 6 4 3 3 5 7 8 13 15
4 2 0 1 1 2 4 2 3 8 5 2 6 6 6 4 5 5 4 6 4 7 9 13 19 18 16 9 9 13 16 16 14 15 14 15 12 11 9 7 8 10 12 11
2 3 1 1 1 1 8 7 7 4 2 3 4 4 10 6 3 4 2 5 7 6 8 17 17 16 14 15 13 15 15 17 18 15 14 13 15 11 6 5 8 10 10 13
2 1 1 2 2 3 8 8 2 2 3 4 5 5 8 4 3 3 3 7 7 8 16 16 16 16 18 16 16 17 17 17 16 16 17 18 17 15 10 9 9 9 10 9
1 1 1 1 2 2 6 6 6 8 6 7 2 1 12 8 4 3 3 8 7 8 16 18 21 19 18 18 18 17 18 18 18 18 18 17 18 17 12 8 7 8 8 10
3 6 3 1 2 2 3 6 7 5 3 6 6 8 8 5 7 3 4 7 11 14 16 19 19 17 17 18 18 18 19 20 18 18 18 17 16 11 10 9 10 9 9 10
4 3 2 4 1 4 4 4 4 5 1 2 5 8 10 6 4 6 11 10 13 14 18 19 19 18 18 18 19 19 20 20 19 18 16 16 15 15 10 9 11 9 10 11
4 3 1 2 2 4 3 2 3 4 3 6 7 7 8 7 6 7 11 11 13 17 18 17 17 17 17 18 18 19 18 19 20 19 16 14 14 14 12 12 11 11 11 11
3 4 1 3 5 7 2 2 2 4 5 6 5 10 8 3 1 4 11 12 13 18 18 17 17 16 17 17 18 18 17 19 18 17 13 13 12 12 11 11 10 8 9 8
2 4 2 7 1 4 4 7 5 7 6 4 4 13 7 5 6 6 14 14 14 18 16 15 17 17 17 18 18 17 18 18 18 12 8 10 10 10 7 4 5 5 3 2
6 1 4 8 4 3 4 5 4 5 3 6 6 12 2 8 13 15 13 14 17 18 17 16 16 16 17 17 18 18 18 18 17 14 6 3 1 2 2 1 3 2 6 6
3 3 8 8 5 3 4 6 8 7 4 4 12 12 23 18 11 14 10 12 14 17 17 15 16 16 16 16 17 17 17 16 15 12 9 6 4 3 3 5 6 7 7 10
3 4 3 6 12 7 11 11 9 14 10 8 7 10 17 18 12 11 6 8 16 17 18 16 17 16 16 16 16 16 15 15 13 12 11 9 7 7 8 10 10 10 12 12
2 2 2 7 4 5 10 13 17 19 15 16 23 29 24 19 2 5 5 9 14 16 16 16 16 16 16 16 16 15 15 14 12 13 12 10 10 10 10 11 10 13 14 14
6 5 4 8 6 7 8 9 15 6 6 12 9 16 2 5 4 4 5 8 11 13 15 15 15 14 14 14 14 15 14 13 12 13 13 13 11 11 9 12 12 14 15 16
6 5 3 5 6 3 6 3 11 12 7 16 7 9 8 7 5 2 2 3 8 10 12 12 11 13 13 12 13 13 13 13 13 14 13 13 11 11 12 13 14 15 14 17
4 4 1 2 3 11 5 4 7 8 10 15 19 16 8 5 2 3 2 3 3 5 7 8 8 9 10 12 11 11 13 14 14 14 13 12 11 11 12 13 14 14 14 16
3 5 5 3 4 8 6 4 4 5 7 7 12 11 6 3 2 5 3 2 2 3 4 7 7 5 8 10 9 10 11 12 14 14 13 13 12 13 13 14 14 13 14 16
4 2 6 4 4 14 10 5 3 7 9 6 9 7 7 5 6 5 5 3 2 3 4 4 4 4 6 7 7 9 10 12 10 11 12 13 13 14 13 13 13 13 15 15
11 11 6 4 2 12 8 5 8 6 0 5 6 6 6 4 5 6 7 5 4 1 3 4 3 5 6 6 5 8 10 8 8 9 11 12 12 10 10 14 12 13 13 14
6 9 10 14 13 3 12 6 7 3 4 5 5 6 7 7 7 8 6 7 5 4 2 0 2 2 5 6 7 8 7 6 6 9 10 10 10 10 9 10 10 9 9 9
6 6 4 2 8 18 14 14 7 7 9 6 6 7 8 7 7 7 6 6 6 5 4 2 3 3 4 4 5 4 4 5 6 8 7 7 8 7 7 6 6 6 5 6
5 9 6 8 11 11 16 12 13 12 10 9 8 9 11 8 6 7 7 7 7 6 4 3 4 4 1 1 3 3 4 3 6 5 5 5 5 5 6 5 3 4 3 4
7 10 8 11 9 5 6 4 6 9 11 11 10 7 6 9 9 8 8 7 7 7 5 4 4 4 3 2 0 2 2 3 4 4 3 3 3 3 3 4 4 10 9 9
Wind_Direction
12 65 68 190 73 128 232 252 274 259 250 342 252 286 293 298 269 254 274 231 278 270 286 295 314 341 355 334 320 299 295 302 311 303 288 280 250 278 276 263 278 296 232 207
27 98 182 274 258 247 299 297 306 299 357 303 294 293 293 290 240 189 166 344 264 253 296 354 5 332 295 272 277 285 286 296 300 300 278 248 255 246 253 272 270 276 278 247
138 156 230 268 336 5 303 220 296 256 316 312 345 319 328 302 103 78 21 20 26 24 5 331 322 316 304 297 291 305 301 295 291 297 296 281 265 270 258 266 272 258 254 274
87 208 47 311 71 66 303 161 301 294 16 294 74 283 300 284 328 95 63 64 29 357 342 330 319 312 305 305 307 311 305 297 291 287 277 274 271 265 263 262 273 276 275 274
208 176 71 186 141 82 252 307 279 262 242 36 338 64 268 302 291 304 346 32 9 333 318 319 317 307 311 311 307 305 296 295 289 282 279 278 278 267 253 240 264 270 269 268
125 83 147 195 270 209 286 310 354 113 90 26 240 136 281 259 235 287 349 353 317 321 333 320 315 319 312 312 311 306 299 292 287 281 274 270 270 267 259 258 260 263 266 268
126 183 160 88 14 33 27 36 339 360 12 222 176 271 245 263 260 53 349 323 318 320 327 325 326 323 319 314 310 305 300 294 287 279 271 269 267 268 261 251 252 253 261 270
132 321 177 19 93 166 28 121 148 237 282 273 326 237 256 212 122 125 10 328 321 335 330 325 323 322 315 313 309 305 300 295 288 281 275 266 259 256 256 247 243 248 251 255
138 256 67 67 79 106 273 59 187 91 2 36 263 287 298 187 39 0 350 325 330 322 331 329 329 325 317 313 310 308 304 296 289 280 274 267 259 252 245 255 246 244 249 258
220 24 128 142 89 26 113 142 45 13 2 299 288 279 242 288 339 331 322 324 330 333 330 331 329 322 319 317 314 309 303 295 289 281 268 261 257 250 248 247 249 241 251 257
150 105 287 104 202 172 22 355 18 118 143 188 293 266 226 241 310 294 322 334 335 331 330 329 328 324 320 320 321 316 311 307 300 277 260 256 256 247 247 247 251 239 259 250
241 138 217 220 213 122 164 196 144 124 259 224 166 268 260 256 7 344 335 344 334 329 329 332 331 328 328 328 328 326 323 321 318 312 262 254 254 245 251 255 227 204 159 325
195 340 6 342 346 4 199 197 145 122 88 219 137 262 258 299 332 341 338 333 334 330 334 340 335 334 332 332 332 334 333 331 330 329 280 266 50 124 146 138 92 93 115 102
130 111 170 198 201 138 201 193 182 138 141 212 229 278 293 307 322 320 316 335 328 339 341 340 338 335 335 335 336 337 339 339 340 353 2 24 26 50 70 75 82 83 99 94
116 179 192 244 257 237 248 236 204 207 194 180 256 226 270 284 290 290 284 335 339 344 345 343 340 336 339 341 343 344 343 344 350 11 11 17 26 50 61 69 64 84 80 86
180 254 37 293 272 224 259 230 220 232 235 255 259 278 279 278 312 310 312 345 343 341 342 341 342 338 341 346 348 347 348 352 358 19 20 22 33 45 55 68 74 79 82 85
154 124 82 269 344 302 298 227 187 194 215 204 194 231 307 289 287 311 311 357 338 336 340 341 343 340 341 345 349 355 354 360 11 25 26 27 30 44 60 72 71 76 79 84
136 119 115 262 353 340 244 189 176 195 222 208 265 255 247 233 258 175 238 345 331 338 339 346 343 339 342 345 357 357 5 12 20 27 30 33 37 47 53 64 69 71 78 80
129 128 92 148 209 298 298 177 156 172 279 206 224 250 260 264 199 219 139 339 317 333 327 342 330 327 332 353 350 11 19 19 24 29 31 34 36 50 55 59 67 71 74 78
107 80 120 76 154 231 240 167 135 123 292 205 192 235 226 127 360 255 189 239 325 302 307 347 327 317 357 344 355 19 28 28 28 30 31 36 41 50 58 62 62 72 75 78
171 175 185 187 239 284 240 173 140 82 243 182 179 201 177 182 195 167 166 239 225 231 293 332 343 349 332 337 344 30 34 30 26 37 42 41 43 49 51 59 61 70 76 77
170 157 191 112 142 278 154 80 184 213 200 183 185 187 191 194 165 178 188 186 196 215 328 349 10 347 335 345 2 31 35 12 26 41 49 49 48 50 54 65 64 66 76 78
224 196 182 188 212 237 205 204 221 192 200 207 189 198 181 189 196 181 188 182 187 179 173 183 65 1 8 3 20 44 7 15 38 52 45 47 49 47 49 60 60 65 65 74
238 179 236 139 240 234 229 250 245 221 222 205 210 195 180 190 191 187 175 180 179 179 180 171 107 49 43 19 32 29 24 15 54 61 52 54 61 57 50 55 59 68 72 90
191 141 187 265 280 280 259 231 230 238 226 220 211 198 196 185 197 184 187 185 186 182 183 181 161 159 181 64 41 7 26 34 67 63 56 55 56 57 67 63 67 77 90 122
188 184 179 227 205 209 242 227 190 214 227 218 201 210 198 183 194 186 195 187 178 182 177 183 195 168 195 148 93 342 15 98 106 84 69 60 71 54 47 71 52 67 86 104